STARLINK-1227 (45230 NORAD) Tracking and Keplerian Element Data

This shows tracking and keplerian element data for the satellite.

Feedback or suggestion? Click here.




ElementValue
Catalog45230
NameSTARLINK-1227
Epoch Orbit2169
Epoch Day185.50001157
Epoch Year2020
RAAN322.4931
Inclination53.0006
Eccentricity0.000111
Argument of Perigee99.1814
Mean Anonmoly27.3211
Mean Motion15.05599957
Decay Rate-0.00029724
L11 45230U 20012BE 20185.50001157 -.00029724 00000-0 -20283-2 0 9997
L22 45230 53.0006 322.4931 0001110 99.1814 27.3211 15.05599957 21698

Live tracking and technical data element details for STARLINK-1227 (NORAD 45230). STARLINK-1227 can be tracked NOW for your location showing map with azimuth and elevation plus other details from your city location.

Track the satellite on the map from your city or location and see movement details for azimuth, elevation, latitude, longitude, range, height, and movement on the map or in text.







IsCatalogInMostPopularTable: catalog: 45230, numindb: 28
Update: records affected: 1



GetName: 45230 STARLINK-1227

Hit Count: updated at: Fri, 03 Jul 2020 16:56:58 GMT